TimeEST,TemperatureF,Dew PointF,Humidity,Sea Level PressureIn,VisibilityMPH,Wind Direction,Wind SpeedMPH,Gust SpeedMPH,PrecipitationIn,Events,Conditions,WindDirDegrees,DateUTC
12:15 AM,66.7,63.5,89,29.99,10.0,SW,3.5,-,N/A,,Clear,220,2013-01-17 05:15:00
12:35 AM,66.4,63.1,89,29.99,10.0,Calm,Calm,-,N/A,,Clear,0,2013-01-17 05:35:00
12:55 AM,65.8,63.0,90,29.99,10.0,Calm,Calm,-,N/A,,Clear,0,2013-01-17 05:55:00
1:15 AM,66.0,63.1,90,29.99,10.0,SSW,3.5,-,N/A,,Scattered Clouds,210,2013-01-17 06:15:00
1:35 AM,66.7,63.3,89,29.99,10.0,Calm,Calm,-,N/A,,Scattered Clouds,0,2013-01-17 06:35:00
1:55 AM,66.7,63.5,89,29.99,10.0,SW,3.5,-,N/A,,Overcast,230,2013-01-17 06:55:00
2:15 AM,65.7,63.1,92,29.99,10.0,Calm,Calm,-,N/A,,Scattered Clouds,0,2013-01-17 07:15:00
2:35 AM,65.3,63.1,93,29.99,10.0,Calm,Calm,-,N/A,,Scattered Clouds,0,2013-01-17 07:35:00
2:55 AM,65.5,63.5,93,29.98,10.0,Calm,Calm,-,N/A,,Overcast,0,2013-01-17 07:55:00
3:15 AM,65.7,63.7,93,29.98,10.0,Calm,Calm,-,N/A,,Overcast,0,2013-01-17 08:15:00
3:35 AM,65.8,63.9,93,29.97,10.0,Calm,Calm,-,N/A,,Overcast,0,2013-01-17 08:35:00
3:55 AM,65.3,63.7,94,29.96,10.0,Calm,Calm,-,N/A,,Scattered Clouds,0,2013-01-17 08:55:00
4:15 AM,64.9,63.7,96,29.95,10.0,Calm,Calm,-,N/A,,Scattered Clouds,0,2013-01-17 09:15:00
4:35 AM,64.8,63.9,97,29.95,10.0,Calm,Calm,-,N/A,,Mostly Cloudy,0,2013-01-17 09:35:00
4:55 AM,63.7,63.0,97,29.94,10.0,Calm,Calm,-,N/A,,Scattered Clouds,0,2013-01-17 09:55:00
5:15 AM,63.1,62.8,99,29.94,10.0,Calm,Calm,-,N/A,,Clear,0,2013-01-17 10:15:00
5:35 AM,62.8,62.6,99,29.94,7.0,Calm,Calm,-,N/A,,Scattered Clouds,0,2013-01-17 10:35:00
5:55 AM,62.2,62.2,100,29.94,7.0,Calm,Calm,-,N/A,,Scattered Clouds,0,2013-01-17 10:55:00
6:15 AM,62.8,62.8,100,29.94,7.0,Calm,Calm,-,N/A,,Mostly Cloudy,0,2013-01-17 11:15:00
6:35 AM,63.1,63.1,100,29.94,10.0,South,4.6,-,N/A,,Scattered Clouds,170,2013-01-17 11:35:00
6:55 AM,63.1,62.8,99,29.94,10.0,South,4.6,-,N/A,,Mostly Cloudy,170,2013-01-17 11:55:00
7:15 AM,63.3,62.6,97,29.94,10.0,Calm,Calm,-,N/A,,Overcast,0,2013-01-17 12:15:00
7:35 AM,63.1,62.2,97,29.94,10.0,South,3.5,-,N/A,,Overcast,180,2013-01-17 12:35:00
7:55 AM,63.1,62.1,96,29.94,10.0,South,4.6,-,N/A,,Overcast,170,2013-01-17 12:55:00
8:15 AM,63.9,62.2,94,29.94,10.0,South,4.6,-,N/A,,Overcast,180,2013-01-17 13:15:00
8:35 AM,64.4,62.1,92,29.94,10.0,South,3.5,-,N/A,,Overcast,180,2013-01-17 13:35:00
8:55 AM,64.4,62.1,92,29.94,10.0,South,4.6,-,N/A,,Overcast,170,2013-01-17 13:55:00
9:15 AM,64.8,62.2,92,29.94,10.0,South,4.6,-,N/A,,Overcast,190,2013-01-17 14:15:00
9:35 AM,66.2,62.6,88,29.94,10.0,SSW,5.8,-,N/A,,Overcast,200,2013-01-17 14:35:00
9:55 AM,67.1,63.1,87,29.92,10.0,South,4.6,-,N/A,,Overcast,180,2013-01-17 14:55:00
10:15 AM,69.8,63.7,81,29.91,10.0,SSW,5.8,-,N/A,,Scattered Clouds,200,2013-01-17 15:15:00
10:35 AM,72.0,64.4,77,29.91,10.0,South,11.5,16.1,N/A,,Mostly Cloudy,190,2013-01-17 15:35:00
10:55 AM,73.6,64.8,74,29.89,10.0,South,6.9,17.3,N/A,,Mostly Cloudy,190,2013-01-17 15:55:00
11:15 AM,75.7,65.1,69,29.87,10.0,SSW,5.8,-,N/A,,Scattered Clouds,200,2013-01-17 16:15:00
11:35 AM,76.3,64.9,68,29.86,10.0,SSW,15.0,20.7,N/A,,Scattered Clouds,200,2013-01-17 16:35:00
11:55 AM,77.2,65.3,67,29.84,10.0,SSW,12.7,19.6,N/A,,Scattered Clouds,200,2013-01-17 16:55:00
12:15 PM,78.1,65.3,65,29.83,10.0,SSW,17.3,25.3,N/A,,Scattered Clouds,210,2013-01-17 17:15:00
12:35 PM,77.2,65.3,67,29.80,10.0,SSW,10.4,18.4,N/A,,Mostly Cloudy,200,2013-01-17 17:35:00
12:55 PM,75.6,65.1,70,29.79,10.0,SSW,11.5,21.9,N/A,,Overcast,210,2013-01-17 17:55:00
1:15 PM,66.2,61.0,83,29.81,5.0,West,19.6,32.2,N/A,Rain,Rain,270,2013-01-17 18:15:00
1:35 PM,60.1,58.6,95,29.82,7.0,West,13.8,23.0,N/A,,Drizzle,260,2013-01-17 18:35:00
1:55 PM,58.8,56.7,93,29.83,7.0,West,13.8,32.2,N/A,,Drizzle,260,2013-01-17 18:55:00
2:15 PM,58.1,56.3,94,29.82,7.0,West,12.7,21.9,N/A,Rain,Heavy Rain,260,2013-01-17 19:15:00
2:35 PM,57.2,56.5,97,29.83,2.5,West,11.5,20.7,N/A,,Heavy Drizzle,260,2013-01-17 19:35:00
2:55 PM,55.2,54.3,97,29.85,4.0,West,12.7,27.6,N/A,,Heavy Drizzle,280,2013-01-17 19:55:00
3:15 PM,53.8,53.2,98,29.86,3.0,West,16.1,25.3,N/A,,Heavy Drizzle,270,2013-01-17 20:15:00
3:35 PM,51.3,50.5,97,29.88,2.0,West,16.1,23.0,N/A,,Heavy Drizzle,260,2013-01-17 20:35:00
3:55 PM,50.9,49.8,96,29.87,10.0,WSW,9.2,20.7,N/A,,Overcast,250,2013-01-17 20:55:00
4:15 PM,51.4,50.0,95,29.87,10.0,WSW,6.9,17.3,N/A,,Overcast,250,2013-01-17 21:15:00
4:35 PM,52.5,49.5,89,29.87,10.0,WSW,8.1,-,N/A,,Mostly Cloudy,250,2013-01-17 21:35:00
4:55 PM,52.9,49.1,87,29.88,10.0,WSW,6.9,-,N/A,,Scattered Clouds,240,2013-01-17 21:55:00
5:15 PM,52.5,49.1,88,29.89,10.0,West,5.8,-,N/A,,Clear,260,2013-01-17 22:15:00
5:35 PM,51.8,49.1,90,29.89,10.0,WSW,4.6,-,N/A,,Scattered Clouds,250,2013-01-17 22:35:00
5:55 PM,52.0,49.6,92,29.91,10.0,West,3.5,-,N/A,,Overcast,280,2013-01-17 22:55:00
6:35 PM,50.2,43.3,77,29.95,10.0,West,20.7,29.9,N/A,,Mostly Cloudy,280,2013-01-17 23:35:00
7:15 PM,49.1,41.2,74,29.98,10.0,West,9.2,17.3,N/A,,Overcast,270,2013-01-18 00:15:00
7:55 PM,48.4,40.3,74,30.02,10.0,West,11.5,19.6,N/A,,Overcast,280,2013-01-18 00:55:00
8:35 PM,47.5,39.9,75,30.06,10.0,WNW,15.0,23.0,N/A,,Mostly Cloudy,290,2013-01-18 01:35:00
8:55 PM,46.6,39.6,77,30.07,10.0,WNW,15.0,26.5,N/A,,Mostly Cloudy,290,2013-01-18 01:55:00
9:15 PM,45.1,38.5,77,30.09,10.0,WNW,13.8,25.3,N/A,,Mostly Cloudy,300,2013-01-18 02:15:00
9:55 PM,43.3,37.9,81,30.10,10.0,WNW,9.2,-,N/A,,Clear,290,2013-01-18 02:55:00
10:15 PM,42.8,37.9,83,30.11,10.0,WNW,8.1,-,N/A,,Clear,300,2013-01-18 03:15:00
10:35 PM,43.3,38.3,82,30.11,10.0,WNW,6.9,-,N/A,,Mostly Cloudy,290,2013-01-18 03:35:00
10:55 PM,43.7,38.7,82,30.12,10.0,WNW,9.2,-,N/A,,Overcast,290,2013-01-18 03:55:00